| time (UTC) | temp C | wind direction | speed KPH | gust KPH | rain 1hr cm | rain 24hr cm | rain mn cm | humidity % | barometer mb |
| 20260510041550 | 8 | 0 | 0.0 | 0.0 | 0.00 | 1.37 | 0.00 | 86 | 1012.3 |
| 20260510040110 | 8 | 0 | 0.0 | 1.6 | 0.00 | 1.37 | 0.00 | 86 | 1012.7 |
| 20260510034549 | 8 | 0 | 0.0 | 1.6 | 0.00 | 1.37 | 1.37 | 86 | 1012.9 |
| 20260510033053 | 8 | 0 | 0.0 | 0.0 | 0.00 | 1.37 | 1.37 | 86 | 1013.0 |
| 20260510031554 | 8 | 0 | 0.0 | 0.0 | 0.00 | 1.37 | 1.37 | 86 | 1013.3 |
| 20260510030048 | 8 | 0 | 0.0 | 0.0 | 0.00 | 1.37 | 1.37 | 86 | 1013.3 |
| 20260510024546 | 8 | 0 | 0.0 | 0.0 | 0.00 | 1.37 | 1.37 | 86 | 1013.4 |
| 20260510023048 | 8 | 0 | 0.0 | 1.6 | 0.03 | 1.37 | 1.37 | 86 | 1013.6 |
| 20260510021551 | 8 | 0 | 0.0 | 1.6 | 0.03 | 1.37 | 1.37 | 86 | 1013.4 |
| 20260510020055 | 8 | 0 | 0.0 | 1.6 | 0.03 | 1.37 | 1.37 | 86 | 1013.7 |
| 20260510014618 | 8 | 0 | 0.0 | 1.6 | 0.03 | 1.37 | 1.37 | 86 | 1014.0 |
| 20260510013051 | 8 | 139 | 0.0 | 1.6 | 0.03 | 1.32 | 1.32 | 86 | 1013.7 |
| 20260510011556 | 8 | 0 | 0.0 | 3.2 | 0.10 | 1.32 | 1.32 | 86 | 1013.4 |
| 20260510010054 | 8 | 0 | 0.0 | 3.2 | 0.15 | 1.32 | 1.32 | 86 | 1013.5 |
| 20260510004551 | 8 | 139 | 1.6 | 3.2 | 0.23 | 1.32 | 1.32 | 86 | 1013.4 |
| 20260510003057 | 8 | 139 | 0.0 | 3.2 | 0.28 | 1.32 | 1.32 | 87 | 1013.6 |
| 20260510001554 | 8 | 0 | 0.0 | 3.2 | 0.25 | 1.24 | 1.24 | 87 | 1013.7 |
| 20260510000052 | 8 | 139 | 0.0 | 3.2 | 0.23 | 1.19 | 1.19 | 87 | 1013.7 |
| 20260509234548 | 8 | 0 | 0.0 | 3.2 | 0.18 | 1.12 | 1.12 | 87 | 1013.8 |
| 20260509233053 | 8 | 139 | 0.0 | 3.2 | 0.10 | 1.04 | 1.04 | 87 | 1013.5 |
| 20260509231549 | 8 | 139 | 0.0 | 1.6 | 0.08 | 0.99 | 0.99 | 87 | 1013.4 |
| 20260509230051 | 8 | 0 | 0.0 | 3.2 | 0.08 | 0.97 | 0.97 | 87 | 1013.4 |
| 20260509224557 | 8 | 0 | 0.0 | 1.6 | 0.08 | 0.94 | 0.94 | 87 | 1013.5 |
| 20260509223049 | 8 | 0 | 0.0 | 1.6 | 0.13 | 0.94 | 0.94 | 87 | 1013.4 |
| 20260509221602 | 8 | 0 | 0.0 | 1.6 | 0.25 | 0.91 | 0.91 | 87 | 1013.5 |
| 20260509220050 | 8 | 0 | 0.0 | 1.6 | 0.28 | 0.89 | 0.89 | 87 | 1013.4 |
| 20260509214553 | 8 | 0 | 0.0 | 3.2 | 0.36 | 0.86 | 0.86 | 87 | 1013.3 |
| 20260509213049 | 8 | 139 | 0.0 | 3.2 | 0.46 | 0.81 | 0.81 | 87 | 1013.4 |
| 20260509211548 | 8 | 0 | 0.0 | 3.2 | 0.38 | 0.66 | 0.66 | 87 | 1013.6 |
| 20260509210058 | 8 | 0 | 0.0 | 3.2 | 0.33 | 0.61 | 0.61 | 88 | 1013.5 |
| 20260509204556 | 8 | 0 | 0.0 | 3.2 | 0.23 | 0.51 | 0.51 | 88 | 1013.7 |
| 20260509203049 | 8 | 0 | 0.0 | 3.2 | 0.08 | 0.36 | 0.36 | 87 | 1013.9 |
| 20260509201556 | 8 | 139 | 0.0 | 4.8 | 0.00 | 0.28 | 0.28 | 87 | 1014.0 |
| 20260509200057 | 8 | 0 | 0.0 | 3.2 | 0.00 | 0.28 | 0.28 | 87 | 1014.2 |
| 20260509194550 | 8 | 139 | 0.0 | 3.2 | 0.00 | 0.28 | 0.28 | 87 | 1013.8 |
| 20260509193051 | 8 | 0 | 1.6 | 4.8 | 0.00 | 0.28 | 0.28 | 87 | 1013.3 |
| 20260509191548 | 8 | 130 | 1.6 | 9.7 | 0.00 | 0.28 | 0.28 | 87 | 1013.3 |
| 20260509190101 | 9 | 212 | 0.0 | 4.8 | 0.00 | 0.28 | 0.28 | 87 | 1013.6 |
| 20260509184544 | 9 | 0 | 0.0 | 4.8 | 0.03 | 0.28 | 0.28 | 87 | 1013.7 |
| 20260509183049 | 9 | 0 | 0.0 | 3.2 | 0.03 | 0.28 | 0.28 | 87 | 1014.8 |
| 20260509181553 | 9 | 135 | 1.6 | 4.8 | 0.03 | 0.28 | 0.28 | 87 | 1014.6 |
| 20260509180053 | 9 | 134 | 0.0 | 3.2 | 0.03 | 0.28 | 0.28 | 87 | 1014.6 |
| 20260509174547 | 10 | 134 | 0.0 | 3.2 | 0.03 | 0.25 | 0.25 | 87 | 1014.6 |
| 20260509173047 | 9 | 134 | 0.0 | 3.2 | 0.03 | 0.25 | 0.25 | 87 | 1014.9 |
| 20260509171547 | 9 | 0 | 0.0 | 3.2 | 0.05 | 0.25 | 0.25 | 87 | 1014.8 |
| 20260509170057 | 9 | 0 | 0.0 | 3.2 | 0.08 | 0.25 | 0.25 | 87 | 1015.0 |
| 20260509164557 | 9 | 0 | 0.0 | 3.2 | 0.05 | 0.23 | 0.23 | 87 | 1015.1 |
| 20260509163053 | 8 | 133 | 1.6 | 6.4 | 0.08 | 0.23 | 0.23 | 87 | 1014.8 |
| 20260509161559 | 8 | 132 | 0.0 | 3.2 | 0.08 | 0.20 | 0.20 | 87 | 1014.6 |
| 20260509160051 | 8 | 0 | 0.0 | 1.6 | 0.08 | 0.18 | 0.18 | 86 | 1015.2 |
| 20260509154548 | 8 | 0 | 0.0 | 3.2 | 0.10 | 0.18 | 0.18 | 86 | 1015.4 |
| 20260509153055 | 8 | 0 | 0.0 | 1.6 | 0.08 | 0.15 | 0.15 | 86 | 1015.7 |
| 20260509151558 | 8 | 0 | 0.0 | 1.6 | 0.08 | 0.13 | 0.13 | 86 | 1015.8 |
| 20260509150054 | 8 | 0 | 0.0 | 1.6 | 0.10 | 0.10 | 0.10 | 84 | 1015.9 |
| 20260509144550 | 8 | 0 | 0.0 | 1.6 | 0.08 | 0.08 | 0.08 | 84 | 1016.1 |
| 20260509143055 | 9 | 0 | 0.0 | 3.2 | 0.08 | 0.08 | 0.08 | 82 | 1016.2 |
| 20260509141549 | 9 | 0 | 0.0 | 3.2 | 0.05 | 0.05 | 0.05 | 78 | 1016.1 |
| 20260509140059 | 10 | 0 | 0.0 | 3.2 | 0.00 | 0.00 | 0.00 | 73 | 1016.1 |
| 20260509134607 | 10 | 0 | 0.0 | 4.8 | 0.00 | 0.00 | 0.00 | 67 | 1015.9 |
| 20260509133050 | 10 | 0 | 0.0 | 4.8 | 0.00 | 0.00 | 0.00 | 65 | 1015.8 |
| 20260509131553 | 10 | 0 | 0.0 | 4.8 | 0.00 | 0.00 | 0.00 | 64 | 1015.6 |
| 20260509130048 | 10 | 0 | 0.0 | 3.2 | 0.00 | 0.00 | 0.00 | 63 | 1015.9 |
| 20260509124545 | 10 | 88 | 0.0 | 3.2 | 0.00 | 0.00 | 0.00 | 68 | 1016.0 |
| 20260509123052 | 8 | 0 | 0.0 | 3.2 | 0.00 | 0.00 | 0.00 | 73 | 1016.0 |
| 20260509121553 | 8 | 0 | 0.0 | 3.2 | 0.00 | 0.00 | 0.00 | 77 | 1016.0 |
| 20260509120043 | 7 | 0 | 0.0 | 1.6 | 0.00 | 0.00 | 0.00 | 80 | 1015.8 |
| 20260509114548 | 6 | 0 | 0.0 | 1.6 | 0.00 | 0.00 | 0.00 | 84 | 1015.8 |
| 20260509113053 | 6 | 0 | 0.0 | 1.6 | 0.00 | 0.00 | 0.00 | 85 | 1015.8 |
| 20260509111551 | 5 | 0 | 0.0 | 0.0 | 0.00 | 0.00 | 0.00 | 87 | 1015.8 |
| 20260509110046 | 4 | 0 | 0.0 | 0.0 | 0.00 | 0.00 | 0.00 | 87 | 1015.9 |
| 20260509104548 | 4 | 0 | 0.0 | 0.0 | 0.00 | 0.00 | 0.00 | 88 | 1016.0 |
| 20260509103053 | 3 | 0 | 0.0 | 0.0 | 0.00 | 0.00 | 0.00 | 88 | 1016.0 |
| 20260509101554 | 3 | 0 | 0.0 | 0.0 | 0.00 | 0.00 | 0.00 | 87 | 1015.7 |
| 20260509100051 | 2 | 0 | 0.0 | 0.0 | 0.00 | 0.00 | 0.00 | 87 | 1015.4 |
| 20260509094545 | 2 | 0 | 0.0 | 0.0 | 0.00 | 0.00 | 0.00 | 87 | 1015.4 |
| 20260509093057 | 2 | 0 | 0.0 | 0.0 | 0.00 | 0.00 | 0.00 | 87 | 1015.2 |
| 20260509091551 | 2 | 0 | 0.0 | 0.0 | 0.00 | 0.00 | 0.00 | 86 | 1015.2 |
| 20260509090052 | 2 | 0 | 0.0 | 0.0 | 0.00 | 0.00 | 0.00 | 86 | 1015.1 |
| 20260509084550 | 3 | 0 | 0.0 | 1.6 | 0.00 | 0.00 | 0.00 | 86 | 1014.9 |
| 20260509083052 | 3 | 0 | 0.0 | 0.0 | 0.00 | 0.00 | 0.00 | 86 | 1015.0 |
| 20260509081551 | 3 | 0 | 0.0 | 0.0 | 0.00 | 0.00 | 0.00 | 85 | 1015.0 |
| 20260509080048 | 3 | 0 | 0.0 | 0.0 | 0.00 | 0.00 | 0.00 | 84 | 1015.1 |
| 20260509074559 | 3 | 0 | 0.0 | 0.0 | 0.00 | 0.00 | 0.00 | 83 | 1015.0 |
| 20260509073101 | 3 | 0 | 0.0 | 0.0 | 0.00 | 0.00 | 0.00 | 83 | 1014.7 |
| 20260509071546 | 3 | 0 | 0.0 | 0.0 | 0.00 | 0.00 | 0.00 | 82 | 1014.8 |
| 20260509070049 | 3 | 0 | 0.0 | 0.0 | 0.00 | 0.00 | 0.00 | 82 | 1014.6 |
| 20260509064558 | 4 | 0 | 0.0 | 0.0 | 0.00 | 0.00 | 0.00 | 81 | 1014.5 |
| 20260509063050 | 4 | 0 | 0.0 | 0.0 | 0.00 | 0.00 | 0.00 | 80 | 1014.7 |
| 20260509061559 | 4 | 0 | 0.0 | 0.0 | 0.00 | 0.00 | 0.00 | 79 | 1014.9 |
| 20260509060054 | 5 | 0 | 0.0 | 0.0 | 0.00 | 0.00 | 0.00 | 77 | 1014.6 |
| 20260509054541 | 5 | 0 | 0.0 | 0.0 | 0.00 | 0.00 | 0.00 | 76 | 1014.6 |
| 20260509053049 | 5 | 0 | 0.0 | 1.6 | 0.00 | 0.00 | 0.00 | 75 | 1014.7 |
| 20260509051551 | 5 | 0 | 0.0 | 0.0 | 0.00 | 0.00 | 0.00 | 74 | 1014.6 |
| 20260509050050 | 6 | 0 | 0.0 | 0.0 | 0.00 | 0.00 | 0.00 | 73 | 1014.5 |
| 20260509044550 | 6 | 0 | 0.0 | 0.0 | 0.00 | 0.00 | 0.00 | 71 | 1014.4 |
| 20260509043057 | 6 | 0 | 0.0 | 0.0 | 0.00 | 0.00 | 0.00 | 69 | 1014.4 |